Regional Weather Roundup
Issued by NWS Sioux Falls, SD

Home | Current Version | Previous Version | Text Only | Print | Product List | Glossary On
Versions: 1 2 3 4 5 6 7 8 9 10 11 12 13 14 15 16 17 18 19 20 21 22 23 24 25 26 27 28 29 30 31 32 33 34 35 36 37 38 39 40 41 42 43 44 45 46 47 48 49 50
000
ASUS43 KFSD 201002
RWRFSD

WEATHER ROUNDUP FOR SE SOUTH DAKOTA/SW MINNESOTA/NW IOWA
NATIONAL WEATHER SERVICE SIOUX FALLS SD
400 AM CST TUE FEB 20 2018

NOTE: "FAIR" INDICATES FEW OR NO CLOUDS BELOW 12,000 FEET WITH NO
SIGNIFICANT WEATHER AND OR OBSTRUCTIONS TO VISIBILITY.


SDZ038>040-050-052>070-201100-
SOUTHEAST SOUTH DAKOTA

CITY           SKY/WX    TMP DP  RH WIND       PRES   REMARKS
BROOKINGS      LGT SNOW   6   2  83 N9        29.91S FOG     WCI  -8
CHAMBERLAIN    PTCLDY     5   1  81 NW12      30.00S WCI -11
HURON          MOCLDY     4   0  83 NW14      30.02R WCI -14
MADISON        FLURRIES   7   7 100 N10       29.89S WCI  -8
MITCHELL       FLURRIES   6   1  80 N16       29.99F WCI -12
SIOUX FALLS    LGT SNOW  10   5  80 N7        29.91S WCI  -1
WINNER         PTSUNNY    4  -1  80 NW18      30.00R WCI -16
YANKTON        LGT SNOW   9   6  88 NW15      29.94R FOG     WCI  -8
$$

MNZ071-072-080-081-089-090-097-098-201100-
SOUTHWEST MINNESOTA

CITY           SKY/WX    TMP DP  RH WIND       PRES   REMARKS
FAIRMONT       FLURRIES  18  16  92 N17       29.84F WCI   3
JACKSON        CLOUDY    16  12  86 NW13      29.84F WCI   2
LUVERNE        FLURRIES  10   5  79 N9        29.88F WCI  -2
MARSHALL       LGT SNOW   9   5  85 NW15      29.90F VSB 1   WCI  -8
MONTEVIDEO     LGT SNOW  12  10  92 N9        29.92F WCI   0
PIPESTONE        N/A      7   3  85 N8        29.86  WCI  -6
REDWOOD FALLS  LGT SNOW  14  12  92 N9        29.90F FOG     WCI   2
TRACY          FLURRIES  10   8  92 N10       29.87F WCI  -3
WINDOM         LGT SNOW  14   1  57 CALM      29.85S VSB 3/4
WORTHINGTON    FLURRIES  12   9  87 NW17      29.84F WCI  -5
$$

IAZ001>003-012>014-020>022-031-032-NEZ013-014-SDZ071-201100-
NORTHWEST IOWA

CITY           SKY/WX    TMP DP  RH WIND       PRES   REMARKS
CHEROKEE       LGT SNOW  18  17  96 NW9       29.87S WCI   7
DENISON          N/A     21  19  93 NW14      29.86F WCI   8
ESTHERVILLE    CLOUDY    16  14  92 NW17      29.84S WCI   0
LE MARS        LGT SNOW  16  14  93 MISG      29.90S
ORANGE CITY    LGT SNOW  16  14  93 N9        29.88R WCI   4
SHELDON        LGT SNOW  14  12  92 MISG      29.86S
SIOUX CITY     FLURRIES  16  13  88 NW16      29.90F WCI   1
SPENCER        FLURRIES  17  14  88 N15       29.86S WCI   2
STORM LAKE     LGT SNOW  19  18  93 MISG      29.84R
$$

ABBREVIATIONS USED IN REMARKS
   TC - TEMPERATURE IN CELSIUS
  WCI - WIND CHILL INDEX
   HX - HEAT INDEX
  VSB - VISIBILITY





USA.gov is the U.S. government's official web portal to all federal, state and local government web resources and services.